| time (UTC) | temp C | wind direction | speed KPH | gust KPH | rain 1hr cm | rain 24hr cm | rain mn cm | humidity % | barometer mb |
| 20260505140513 | 13 | 346 | 9.7 | 24.1 | 0.00 | 0.00 | 0.00 | 62 | 1011.4 |
| 20260505124514 | 13 | 331 | 9.7 | 16.1 | 0.00 | 0.00 | 0.00 | 61 | 1011.5 |
| 20260505120513 | 13 | 303 | 9.7 | 22.5 | 0.00 | 0.00 | 0.00 | 65 | 1011.6 |
| 20260505115513 | 13 | 331 | 11.3 | 20.9 | 0.00 | 0.00 | 0.00 | 63 | 1011.6 |
| 20260505114513 | 13 | 350 | 9.7 | 19.3 | 0.00 | 0.00 | 0.00 | 65 | 1011.7 |
| 20260505113512 | 13 | 349 | 9.7 | 22.5 | 0.00 | 0.00 | 0.00 | 63 | 1011.7 |
| 20260505112513 | 13 | 347 | 9.7 | 24.1 | 0.00 | 0.00 | 0.00 | 64 | 1011.5 |
| 20260505101514 | 12 | 356 | 9.7 | 19.3 | 0.00 | 0.00 | 0.00 | 71 | 1011.8 |
| 20260505095514 | 12 | 305 | 11.3 | 16.1 | 0.00 | 0.00 | 0.00 | 72 | 1011.8 |
| 20260505094513 | 12 | 347 | 9.7 | 20.9 | 0.00 | 0.00 | 0.00 | 73 | 1011.8 |
| 20260505091513 | 12 | 304 | 9.7 | 22.5 | 0.00 | 0.00 | 0.00 | 69 | 1011.7 |
| 20260505085514 | 12 | 2 | 4.8 | 19.3 | 0.00 | 0.00 | 0.00 | 72 | 1011.7 |
| 20260505081515 | 11 | 334 | 8.0 | 19.3 | 0.00 | 0.03 | 0.00 | 74 | 1011.6 |
| 20260505075513 | 12 | 311 | 8.0 | 16.1 | 0.00 | 0.03 | 0.00 | 75 | 1011.4 |
| 20260505073513 | 11 | 333 | 9.7 | 22.5 | 0.00 | 0.03 | 0.00 | 78 | 1011.4 |
| 20260505071513 | 10 | 338 | 12.9 | 19.3 | 0.00 | 0.03 | 0.00 | 80 | 1011.4 |
| 20260505065513 | 10 | 356 | 8.0 | 16.1 | 0.00 | 0.03 | 0.00 | 83 | 1011.3 |
| 20260505064513 | 10 | 322 | 8.0 | 22.5 | 0.00 | 0.03 | 0.00 | 81 | 1011.3 |
| 20260505063513 | 10 | 309 | 9.7 | 24.1 | 0.00 | 0.03 | 0.00 | 81 | 1011.2 |
| 20260505062513 | 10 | 307 | 11.3 | 16.1 | 0.00 | 0.03 | 0.00 | 80 | 1011.3 |
| 20260505055513 | 10 | 318 | 9.7 | 19.3 | 0.00 | 0.03 | 0.00 | 81 | 1011.2 |
| 20260505054513 | 9 | 289 | 9.7 | 20.9 | 0.00 | 0.03 | 0.00 | 82 | 1011.3 |
| 20260505053513 | 9 | 310 | 9.7 | 20.9 | 0.00 | 0.03 | 0.00 | 83 | 1011.2 |
| 20260505052514 | 8 | 342 | 9.7 | 19.3 | 0.00 | 0.03 | 0.00 | 85 | 1011.2 |
| 20260505041513 | 8 | 308 | 3.2 | 12.9 | 0.00 | 0.03 | 0.00 | 88 | 1011.1 |
| 20260505040512 | 7 | 337 | 4.8 | 9.7 | 0.00 | 0.03 | 0.00 | 88 | 1011.0 |
| 20260505035513 | 7 | 319 | 4.8 | 9.7 | 0.00 | 0.03 | 0.00 | 88 | 1011.0 |
| 20260505030513 | 7 | 299 | 8.0 | 14.5 | 0.00 | 0.03 | 0.00 | 88 | 1010.8 |
| 20260505025513 | 7 | 296 | 8.0 | 14.5 | 0.00 | 0.03 | 0.00 | 88 | 1010.9 |
| 20260505024513 | 7 | 279 | 4.8 | 12.9 | 0.00 | 0.03 | 0.00 | 88 | 1010.9 |
| 20260505015513 | 7 | 326 | 6.4 | 14.5 | 0.00 | 0.05 | 0.00 | 87 | 1011.2 |
| 20260505013514 | 7 | 290 | 4.8 | 11.3 | 0.00 | 0.05 | 0.00 | 87 | 1011.2 |
| 20260505012515 | 7 | 313 | 6.4 | 12.9 | 0.00 | 0.05 | 0.00 | 87 | 1011.3 |
| 20260505011514 | 7 | 313 | 4.8 | 12.9 | 0.00 | 0.05 | 0.00 | 87 | 1011.4 |
| 20260505005514 | 7 | 302 | 4.8 | 14.5 | 0.00 | 0.05 | 0.00 | 87 | 1011.4 |
| 20260505004514 | 7 | 307 | 9.7 | 14.5 | 0.00 | 0.05 | 0.00 | 87 | 1011.4 |
| 20260505003513 | 7 | 296 | 6.4 | 14.5 | 0.00 | 0.05 | 0.00 | 87 | 1011.5 |
| 20260505002513 | 7 | 296 | 6.4 | 14.5 | 0.00 | 0.05 | 0.00 | 87 | 1011.5 |
| 20260505001513 | 7 | 292 | 6.4 | 19.3 | 0.00 | 0.05 | 0.00 | 87 | 1011.5 |
| 20260504235514 | 7 | 302 | 8.0 | 14.5 | 0.00 | 0.05 | 0.00 | 87 | 1011.4 |
| 20260504234514 | 7 | 304 | 4.8 | 12.9 | 0.00 | 0.05 | 0.00 | 87 | 1011.4 |
| 20260504231513 | 8 | 314 | 6.4 | 14.5 | 0.00 | 0.08 | 0.00 | 87 | 1011.4 |
| 20260504230514 | 8 | 319 | 6.4 | 19.3 | 0.00 | 0.08 | 0.00 | 87 | 1011.5 |
| 20260504223513 | 8 | 314 | 4.8 | 9.7 | 0.00 | 0.10 | 0.00 | 87 | 1011.5 |
| 20260504222514 | 8 | 299 | 3.2 | 8.0 | 0.00 | 0.13 | 0.00 | 87 | 1011.5 |
| 20260504221510 | 8 | 319 | 4.8 | 9.7 | 0.00 | 0.13 | 0.00 | 87 | 1011.6 |
| 20260504220513 | 8 | 283 | 3.2 | 9.7 | 0.00 | 0.13 | 0.00 | 87 | 1011.6 |
| 20260504215514 | 8 | 313 | 4.8 | 11.3 | 0.00 | 0.13 | 0.13 | 87 | 1011.6 |
| 20260504211514 | 8 | 309 | 4.8 | 11.3 | 0.00 | 0.30 | 0.13 | 88 | 1011.6 |
| 20260504210514 | 8 | 319 | 4.8 | 9.7 | 0.00 | 0.30 | 0.13 | 89 | 1011.6 |
| 20260504205513 | 8 | 324 | 3.2 | 8.0 | 0.00 | 0.33 | 0.13 | 89 | 1011.6 |
| 20260504204513 | 8 | 328 | 3.2 | 4.8 | 0.00 | 0.33 | 0.13 | 89 | 1011.5 |
| 20260504203513 | 8 | 328 | 0.0 | 3.2 | 0.00 | 0.36 | 0.13 | 88 | 1011.5 |
| 20260504195512 | 9 | 333 | 1.6 | 8.0 | 0.00 | 0.51 | 0.13 | 86 | 1011.2 |
| 20260504194512 | 9 | 315 | 1.6 | 4.8 | 0.00 | 0.51 | 0.13 | 85 | 1011.2 |
| 20260504191512 | 10 | 298 | 0.0 | 3.2 | 0.00 | 0.51 | 0.13 | 81 | 1011.1 |
| 20260504190512 | 11 | 305 | 1.6 | 3.2 | 0.00 | 0.51 | 0.13 | 79 | 1011.1 |
| 20260504184513 | 11 | 281 | 3.2 | 8.0 | 0.00 | 0.51 | 0.13 | 77 | 1011.0 |
| 20260504182512 | 12 | 304 | 6.4 | 12.9 | 0.00 | 0.51 | 0.13 | 73 | 1010.9 |
| 20260504180512 | 12 | 0 | 8.0 | 16.1 | 0.00 | 0.51 | 0.13 | 67 | 1010.7 |
| 20260504173512 | 13 | 259 | 12.9 | 20.9 | 0.00 | 0.51 | 0.13 | 63 | 1010.7 |
| 20260504172512 | 14 | 246 | 9.7 | 19.3 | 0.00 | 0.51 | 0.13 | 63 | 1010.7 |
| 20260504171512 | 14 | 267 | 11.3 | 25.7 | 0.00 | 0.51 | 0.13 | 59 | 1010.7 |
| 20260504170512 | 14 | 272 | 12.9 | 25.7 | 0.00 | 0.51 | 0.13 | 60 | 1010.7 |